Regional Weather Roundup
Issued by NWS

Home | Current Version | Previous Version | Graphics & Text | Print | Product List | Glossary On
Versions: 1 2 3 4 5 6 7 8 9 10 11 12 13 14 15 16 17 18 19 20 21 22 23 24 25 26 27 28 29 30 31 32 33 34 35 36 37 38 39 40 41 42 43 44 45 46 47 48 49 50
000
ASUS45 KSLC 300010
RWRUT

UTAH REGIONAL WEATHER ROUNDUP
NATIONAL WEATHER SERVICE SALT LAKE CITY UT
600 PM MDT FRI JUL 29 2016

UTZ001>011-023>025-300100-

NORTHERN UTAH

CITY           SKY/WX    TMP DP  RH WIND       PRES   REMARKS
BRIGHAM CITY     N/A     97  24   7 SW7       29.95F HX  91
HILL AFB       SUNNY     94  37  13 VRB2      30.01F HX  90
LOGAN          SUNNY     97  35  11 N9        29.96F HX  92
OGDEN          SUNNY     97  33  10 W7        29.96F HX  91
PROVO AIRPORT  MOSUNNY   97  48  19 NW14      29.96F HX  93
SALT LAKE CITY MOSUNNY  101  35  10 NW10      29.94F HX  95
VERNAL         SUNNY     94  32  11 S5        30.00F
WENDOVER       MOSUNNY   97  36  11 S12       29.96S HX  92
HEBER CITY     SUNNY     95  32  11 NW10      30.05S HX  90

$$

UTZ012>022-026-027-300100-

SOUTHERN/CENTRAL UTAH

CITY           SKY/WX    TMP DP  RH WIND       PRES   REMARKS
BLANDING       SUNNY     95  31  10 E3        30.11F
BRYCE CANYON   CLOUDY    80  37  21 NW15      30.29R
CEDAR CITY     PTSUNNY   92  38  15 VRB5      30.10F
DELTA          PTSUNNY   97  32  10 SW8       29.98S HX  91
MILFORD        CLOUDY    93  36  13 SE6       30.03F
MOAB/CYNLANDS  MOSUNNY  102  29   7 N8        29.92R HX  95
PRICE          MOSUNNY   92  31  11 N14       30.06F
ST GEORGE      CLEAR    106  46  13 N13       29.84R HX 102

$$

REGIONAL REPORTS     COLORADO/ARIZONA

CITY           SKY/WX    TMP DP  RH WIND       PRES   REMARKS
CRAIG, CO      CLOUDY    86  30  13 W13       30.09S THUNDER
GRAND JUNCTION MOSUNNY   94  35  12 N28G41    29.97R
RIFLE          SUNNY     95  32  11 SE5       30.01F HX  90
MONTROSE       SUNNY     93  36  13 S12       30.05F
CORTEZ         CLOUDY    95  31  10 VRB5      30.05F
PAGE, AZ       CLOUDY    97  38  13 W17G26    29.94R HX  92
GRAND CANYON   CLOUDY    80  50  34 CALM      30.21F
KINGMAN        PTSUNNY   97  52  21 N14G24    29.90R THUNDER HX  94
FLAGSTAFF      CLOUDY    73  44  35 NW10G28   30.23F

$$

REGIONAL REPORTS    NEVADA/IDAHO/WYOMING

CITY           SKY/WX    TMP DP  RH WIND       PRES   REMARKS
LAS VEGAS, NV  PTSUNNY  111  40   9 E6        29.70F HX 105
ELY            CLOUDY    78  47  33 S8        30.18S
ELKO           MOSUNNY   96  36  12 N14G24    30.01R HX  91
POCATELLO, ID  SUNNY     96  38  13 W13       29.96F HX  91
BURLEY         SUNNY     91  44  19 W9        29.94F
EVANSTON, WY   SUNNY     86  27  11 NW17G26   30.21S
ROCK SPRINGS   SUNNY     88  14   6 NW30G38   30.12S
KEMMERER         N/A     84  27  12 W23G30    30.20S

$$



USA.gov is the U.S. government's official web portal to all federal, state and local government web resources and services.